STARLINK-35050

Last updated on Tue Sep 16 2025 00:02:08 GMT+0000 (Coordinated Universal Time)

1 65440U 25194G 25257.76810616 -.00204923 00000+0 -11808-2 0 9997 2 65440 97.5978 109.0699 0000082 312.3048 47.8212 15.79141196 3057
UTC large
Height (km)
Speed (km/s)
/
Latitude / Longitude
Inclination (degrees)
Orbital Period (minutes)
Azimuth
Elevation
Range (km)
Doppler Factor

Next 0 passes for location: London (51.5072 / 0.1276)

Sorry there are no passes over London.